Voltar ao catálogo

ONEWEB-0118

AtivoComunicaçõesPO
NORAD 47264·PAYLOAD·🇬🇧 United Kingdom

Lançado Dec 18, 2020 de Vostochny Cosmodrome

Loading…

Próximas Passagens (próximas 24 horas)

TLE

AtualizadoSource: CelesTrak SupGP

Época: Sep 14, 2026, 13:16 UTC

1 47264C 20100G   26257.55292083  .00002578  00000+0  71747-2 0  2578
2 47264  87.8981 332.9144 0001798 111.1336 358.8018 13.12434289    14

Acompanhe ONEWEB-0118 em tempo real com AllMySat

Download on the App Store